Location: Grand Lay
(47.3253°N, 0.9468°E)
Time: 19:34:43
(UTC+00:00)

Gbstr 26 Del rocket - Pass Details

Date: 16 April 2026
Orbit: 490 x 1216 km, 51.8° (Epoch: 13 May)

Event Time Altitude Azimuth Distance (km) Brightness Sun altitude
Exits shadow 01:07:44 16° 60° (ENE) 1,388 5.4 -30.4°
Drops below altitude 10° 01:08:29 10° 63° (ENE) 1,690 5.8 -30.4°
Sets 01:10:38 0° 68° (ENE) 2,565 6.8 -30.3°
